Tracking 19286 objects as of 18-Nov-2018
HD Live streaming from Space Station
objects crossing your sky now

OV1-14

Track OV1-14 now!
10-day predictions
OV1-14 is classified as:


NORAD ID: 3174
Int'l Code: 1968-026B
Perigee: 570.4 km
Apogee: 9,856.5 km
Inclination: 100.0 °
Period: 206.8 minutes
Semi major axis: 11584 km
RCS: 0.7366 m2 (medium)
Launch date: April 6, 1968
Source: United States (US)
Launch site: AIR FORCE WESTERN TEST RANGE (AFWTR)
aabbcc
Your satellite tracking list
Your tracking list is empty




NASA's NSSDC Master Catalog

Two Line Element Set (TLE):
1  3174U 68026B   18322.21714875 -.00000188  00000-0 -30111-3 0  9996
2  3174 100.0080 237.8665 4007986 194.9092 345.2599  6.96291252283878
Source of the keplerian elements: AFSPC